Retour au catalogue

CZ-4 DEB

ActifSSO
NORAD 27493·DEBRIS·🇨🇳 China

Lancé Oct 14, 1999 depuis Taiyuan Satellite Launch Center

Loading…

Prochains Passages (prochaines 24 heures)

TLE

FraisSource: Space-Track

Époque: Sep 12, 2026, 09:57 UTC

1 27493U 99057MN  26255.41496806  .00000503  00000-0  13754-3 0  9994
2 27493  98.5353 313.9136 0072449 274.1325 149.5311 14.50224362363786

Suivez CZ-4 DEB en temps réel avec AllMySat

Download on the App Store